Location: Burland Observatory
(39.4088°N, 105.4217°W)
Time: 19:43:32
(UTC-07:00)

Vanguard 3 - Pass Details

Date: 17 December 2019
Orbit: 508 x 3263 km, 33.4° (Epoch: 20 January)

Event Time Altitude Azimuth Distance (km) Brightness Sun altitude
Rises 07:39:54 0° 257° (WSW) 3,285 9.9 3.1°
Reaches altitude 10° 07:41:56 10° 252° (WSW) 2,570 9.4 3.4°
Maximum altitude 07:47:58 57° 175° (S) 1,469 8.9 4.4°
Drops below altitude 10° 07:58:49 10° 101° (E) 4,483 12.3 6.1°
Sets 08:03:30 0° 98° (E) 5,941 12.7 6.8°
